Skip Page Navigation
NASA JPL Caltech
NASA Logo - Jet Propulsion Laboratory + View the NASA Portal
+ Center for Near-Earth Object Studies
JPL Home Earth Solar System Stars & Galaxies Technology
JPL Solar System Dynamics
BODIES ORBITS EPHEMERIDES TOOLS PHYSICAL DATA DISCOVERY FAQ SITE MAP
JPL Small-Body Database Browser
Search: [ help ]  
221 Eos (A882 BA)
Classification: Main-belt Asteroid          SPK-ID: 2000221
Ephemeris | Orbit Diagram | Orbital Elements | Mission Design | Physical Parameters | Discovery Circumstances ]

[ hide orbit diagram ]

For accurate long-term ephemerides, please instead use our Horizons system.This orbit viewer was implemented using two-body methods, and hence should not be used for determining accurate long-term trajectories (over several years or decades) or planetary encounter circumstances.


Orbital Elements at Epoch 2459200.5 (2020-Dec-17.0) TDB
Reference: JPL 43 (heliocentric ecliptic J2000)
 Element Value Uncertainty (1-sigma)   Units 
e .1027386720011809 3.9326e-08  
a 3.010861705940022 1.1446e-08 au
q 2.701529772692534 1.2048e-07 au
i 10.89287742707454 4.3584e-06 deg
node 141.7312810525315 2.2182e-05 deg
peri 192.3004597125034 3.0264e-05 deg
M 9.667188831462058 2.1027e-05 deg
tp 2459149.257260445790
(2020-Oct-26.75726045)
0.0001114 TDB
period 1908.2472227581
5.22
1.0881e-05
2.979e-08
d
yr
n .1886548009642436 1.0758e-09 deg/d
Q 3.32019363918751 1.2622e-08 au
  Orbit Determination Parameters
   # obs. used (total)      3110  
   data-arc span      49390 days (135.22 yr)  
   first obs. used      1885-10-29  
   last obs. used      2021-01-19  
   planetary ephem.      DE441  
   SB-pert. ephem.      SB441-N16  
   condition code      0  
   norm. resid. RMS      .43664  
   source      ORB  
   producer      Otto Matic  
   solution date      2021-Apr-12 10:30:47  

Additional Information
 Earth MOID = 1.69006 au 
 Jupiter MOID = 2.03526 au 
 T_jup = 3.214 
[ show covariance matrix ]

Ephemeris | Orbit Diagram | Orbital Elements | Mission Design | Physical Parameters | Discovery Circumstances ]

Physical Parameter Table
Parameter Symbol Value Units Sigma Reference Notes
absolute magnitude H 7.79   n/a E2021B10 IRAS observations used: 15
magnitude slope G 0.13   n/a PDS3 (MPC 17258) Fit
diameter diameter 95.469 km 1.684 urn:nasa:pds:neowise_diameters_albedos::2.0[mainbelt] (http://adsabs.harvard.edu/abs/2012ApJ...759L...8M)  
rotation period rot_per 10.443 h n/a LCDB (Rev. 2020-October); Warner et al., 2009 Published Reference List:
[Harris, A.W.; Young, J.W. (1980) Icarus 43, 20-32.]
[Harris, A.W.; Young, J.W. (1983) Icarus 54, 59-109.]
[Behrend, R. (2007) Observatoire de Geneve web site, http://obswww.unige.ch/~behrend/page_cou.html]
[Pilcher, F. (2013) Minor Planet Bull. 40, 158-160.]
[Behrend, R. (2014) Observatoire de Geneve web site, http://obswww.unige.ch/~behrend/page_cou.html]
[Hanus, J.; Delbo, M.; Ali-Lagoa, V.; Bolin, B.; et al. (2016) Astron. Astrophys., submitted.]
[Hanus, J.; Delbo, M.; Ali-Lagoa, V.; Bolin, B.; et al. (2018) Icarus 299, 84-96.]
[Behrend, R. (2019) Observatoire de Geneve web site, http://obswww.unige.ch/~behrend/page_cou.html]
geometric albedo albedo 0.166   0.013 urn:nasa:pds:neowise_diameters_albedos::2.0[mainbelt] (http://adsabs.harvard.edu/abs/2012ApJ...759L...8M)  
B-V BV 0.768   0.031 EAR-A-5-DDR-UBV-MEAN-VALUES-V1.2 #obs=4; phase (min.=1.96, mean=8.64, max.=12.71) deg.
U-B UB 0.410   0.062 EAR-A-5-DDR-UBV-MEAN-VALUES-V1.2 #obs=4; phase (min.=1.96, mean=8.64, max.=12.71) deg.
Tholen spectral type spec_T S   n/a EAR-A-5-DDR-TAXONOMY-V4.0 used 7 color indices; used ground-based radiometric albedo
SMASSII spectral type spec_B K   n/a EAR-A-5-DDR-TAXONOMY-V4.0 based on a high-resolution spectrum by Xu et al. (1995) or Bus and Binzel (2002)

221 Eos (A882 BA)          Discovered 1882-Jan-18 by Palisa, J. at Vienna
Reference: DISCOVERY.DBLast Updated: 2003-08-29
Ephemeris | Orbit Diagram | Orbital Elements | Mission Design | Physical Parameters | Discovery Circumstances ]
ABOUT SSD CREDITS/AWARDS PRIVACY/COPYRIGHT GLOSSARY LINKS
FirstGov 2021-Apr-19 13:40 UT
(server date/time)  
NASA Home Page
Site Manager:   Ryan S. Park
Webmaster  Alan B. Chamberlin